WJA169 CYEG-CYYC

Flight info

Callsign WJA169
Flight time 0h 36m
Altitude 24000
Route OLIMI Q814 AMUNO/N0371F230 Q814 ADVOX ADVOX9
Aircraft B738/M-SDE2E3FGHIRWXY/LB1

Departure

Time 2026-05-05 06:36
Airport Edmonton International Airport (CYEG)

Arrival

Time 2026-05-05 07:12
Airport Calgary International Airport (CYYC)
Time Latitude Longitude Altitude Speed Heading
2026-05-05 06:05 53.30967 -113.58676 2350 ft 0 kts 86°
2026-05-05 06:19 53.30967 -113.58680 2350 ft 0 kts 86°
2026-05-05 06:19 53.30966 -113.58704 2332 ft 3 kts 86°
2026-05-05 06:19 53.30965 -113.58736 2350 ft 3 kts 86°
2026-05-05 06:20 53.30967 -113.58766 2350 ft 3 kts 132°
2026-05-05 06:20 53.30979 -113.58779 2350 ft 0 kts 170°
2026-05-05 06:23 53.30978 -113.58779 2350 ft 0 kts 170°
2026-05-05 06:23 53.30974 -113.58781 2350 ft 2 kts 192°
2026-05-05 06:23 53.30953 -113.58786 2350 ft 3 kts 188°
2026-05-05 06:24 53.30928 -113.58788 2350 ft 4 kts 179°
2026-05-05 06:24 53.30892 -113.58789 2351 ft 6 kts 190°
2026-05-05 06:24 53.30852 -113.58859 2351 ft 9 kts 223°
2026-05-05 06:24 53.30778 -113.58882 2352 ft 13 kts 181°
2026-05-05 06:25 53.30691 -113.58868 2353 ft 12 kts 171°
2026-05-05 06:25 53.30607 -113.58849 2355 ft 12 kts 173°
2026-05-05 06:25 53.30525 -113.58859 2356 ft 12 kts 195°
2026-05-05 06:25 53.30455 -113.58805 2356 ft 12 kts 136°
2026-05-05 06:26 53.30396 -113.58700 2356 ft 13 kts 132°
2026-05-05 06:26 53.30332 -113.58595 2356 ft 13 kts 137°
2026-05-05 06:26 53.30267 -113.58493 2355 ft 13 kts 136°
2026-05-05 06:26 53.30204 -113.58386 2355 ft 13 kts 134°
2026-05-05 06:27 53.30136 -113.58272 2355 ft 14 kts 135°
2026-05-05 06:27 53.29986 -113.58018 2354 ft 16 kts 134°
2026-05-05 06:27 53.29906 -113.57877 2353 ft 17 kts 133°
2026-05-05 06:28 53.29822 -113.57724 2353 ft 18 kts 132°
2026-05-05 06:28 53.29765 -113.57618 2352 ft 0 kts 131°
2026-05-05 06:31 53.29764 -113.57617 2352 ft 1 kts 143°
2026-05-05 06:31 53.29756 -113.57610 2352 ft 5 kts 149°
2026-05-05 06:31 53.29685 -113.57518 2352 ft 19 kts 138°
2026-05-05 06:31 53.29587 -113.57349 2351 ft 21 kts 134°
2026-05-05 06:32 53.29488 -113.57181 2350 ft 20 kts 134°
2026-05-05 06:32 53.29390 -113.57020 2350 ft 19 kts 137°
2026-05-05 06:32 53.29295 -113.56866 2349 ft 19 kts 136°
2026-05-05 06:32 53.29204 -113.56715 2348 ft 18 kts 134°
2026-05-05 06:33 53.29116 -113.56569 2347 ft 17 kts 135°
2026-05-05 06:33 53.29032 -113.56427 2347 ft 17 kts 134°
2026-05-05 06:33 53.28951 -113.56290 2346 ft 16 kts 139°
2026-05-05 06:33 53.28846 -113.56243 2346 ft 16 kts 181°
2026-05-05 06:34 53.28774 -113.56247 2346 ft 8 kts 190°
2026-05-05 06:34 53.28729 -113.56290 2347 ft 7 kts 222°
2026-05-05 06:34 53.28722 -113.56370 2346 ft 8 kts 294°
2026-05-05 06:34 53.28738 -113.56412 2346 ft 0 kts 310°
2026-05-05 06:35 53.28738 -113.56413 2346 ft 0 kts 310°
2026-05-05 06:35 53.28740 -113.56416 2346 ft 1 kts 310°
2026-05-05 06:35 53.28784 -113.56495 2347 ft 39 kts 315°
2026-05-05 06:35 53.29201 -113.57178 2350 ft 128 kts 315°
2026-05-05 06:36 53.30003 -113.58462 2644 ft 184 kts 318°
2026-05-05 06:36 53.30954 -113.60136 3623 ft 208 kts 316°
2026-05-05 06:36 53.32036 -113.61980 4393 ft 233 kts 318°
2026-05-05 06:36 53.33149 -113.63837 5591 ft 224 kts 319°
2026-05-05 06:37 53.34258 -113.65672 6503 ft 224 kts 319°
2026-05-05 06:37 53.35367 -113.67501 7370 ft 225 kts 319°
2026-05-05 06:37 53.36484 -113.69373 8182 ft 229 kts 317°
2026-05-05 06:37 53.37339 -113.71653 8979 ft 240 kts 291°
2026-05-05 06:38 53.37382 -113.74498 9815 ft 254 kts 262°
2026-05-05 06:38 53.36641 -113.77254 10578 ft 268 kts 241°
2026-05-05 06:38 53.35247 -113.79539 10979 ft 302 kts 215°
2026-05-05 06:38 53.33226 -113.81075 11316 ft 332 kts 204°
2026-05-05 06:39 53.31002 -113.82399 12031 ft 344 kts 202°
2026-05-05 06:39 53.28713 -113.83679 12918 ft 350 kts 202°
2026-05-05 06:39 53.26390 -113.84971 13818 ft 355 kts 202°
2026-05-05 06:39 53.24025 -113.86302 14582 ft 363 kts 202°
2026-05-05 06:40 53.21604 -113.87683 15247 ft 372 kts 203°
2026-05-05 06:40 53.19130 -113.89109 15929 ft 381 kts 204°
2026-05-05 06:40 53.16594 -113.90578 16633 ft 389 kts 204°
2026-05-05 06:40 53.14007 -113.92082 17323 ft 398 kts 204°
2026-05-05 06:41 53.11363 -113.93619 17995 ft 407 kts 205°
2026-05-05 06:41 53.08665 -113.95187 18653 ft 415 kts 205°
2026-05-05 06:41 53.05921 -113.96779 19337 ft 419 kts 205°
2026-05-05 06:41 53.03149 -113.98383 19969 ft 426 kts 205°
2026-05-05 06:42 53.00325 -114.00018 20526 ft 434 kts 205°
2026-05-05 06:42 52.97445 -114.01682 21026 ft 441 kts 205°
2026-05-05 06:42 52.94532 -114.03361 21660 ft 446 kts 205°
2026-05-05 06:42 52.91588 -114.05054 22428 ft 447 kts 205°
2026-05-05 06:43 52.88650 -114.06739 23265 ft 447 kts 206°
2026-05-05 06:43 52.85707 -114.08428 23979 ft 448 kts 206°
2026-05-05 06:43 52.82751 -114.10125 24189 ft 449 kts 206°
2026-05-05 06:43 52.79846 -114.11776 24206 ft 446 kts 205°
2026-05-05 06:44 52.76901 -114.13401 24236 ft 448 kts 205°
2026-05-05 06:44 52.73928 -114.15016 24231 ft 450 kts 205°
2026-05-05 06:44 52.70949 -114.16627 24235 ft 452 kts 205°
2026-05-05 06:44 52.67948 -114.18249 24214 ft 453 kts 205°
2026-05-05 06:45 52.64950 -114.19869 24217 ft 453 kts 205°
2026-05-05 06:45 52.61952 -114.21490 24159 ft 453 kts 204°
2026-05-05 06:45 52.58962 -114.23101 24195 ft 450 kts 204°
2026-05-05 06:45 52.55990 -114.24705 24203 ft 448 kts 204°
2026-05-05 06:46 52.53035 -114.26302 24190 ft 446 kts 204°
2026-05-05 06:46 52.50089 -114.27893 24196 ft 445 kts 204°
2026-05-05 06:46 52.47159 -114.29472 24218 ft 443 kts 205°
2026-05-05 06:46 52.44227 -114.31051 24211 ft 443 kts 205°
2026-05-05 06:47 52.41299 -114.32626 24219 ft 443 kts 205°
2026-05-05 06:47 52.38374 -114.34196 24197 ft 440 kts 205°
2026-05-05 06:47 52.35502 -114.35727 24180 ft 427 kts 205°
2026-05-05 06:47 52.32715 -114.37208 24180 ft 414 kts 205°
2026-05-05 06:48 52.30020 -114.38641 24181 ft 401 kts 205°
2026-05-05 06:48 52.27409 -114.40031 24185 ft 389 kts 205°
2026-05-05 06:48 52.24905 -114.41365 24102 ft 377 kts 206°
2026-05-05 06:48 52.22456 -114.42670 24131 ft 364 kts 206°
2026-05-05 06:49 52.20084 -114.43933 24140 ft 354 kts 206°
2026-05-05 06:49 52.17762 -114.45172 24201 ft 351 kts 206°
2026-05-05 06:49 52.15406 -114.46441 24232 ft 366 kts 206°
2026-05-05 06:49 52.12919 -114.47779 24260 ft 387 kts 205°
2026-05-05 06:50 52.10304 -114.49170 24243 ft 400 kts 205°
2026-05-05 06:50 52.07669 -114.50551 24176 ft 394 kts 205°
2026-05-05 06:50 52.05083 -114.51904 24049 ft 388 kts 205°
2026-05-05 06:50 52.02494 -114.53272 23383 ft 397 kts 205°
2026-05-05 06:51 51.99793 -114.54719 22241 ft 419 kts 204°
2026-05-05 06:51 51.96991 -114.56211 21584 ft 425 kts 204°
2026-05-05 06:51 51.94181 -114.57692 21109 ft 424 kts 204°
2026-05-05 06:51 51.91381 -114.59162 20704 ft 422 kts 204°
2026-05-05 06:52 51.88593 -114.60624 20317 ft 419 kts 204°
2026-05-05 06:52 51.85849 -114.62060 20200 ft 409 kts 204°
2026-05-05 06:52 51.83217 -114.63437 20190 ft 397 kts 204°
2026-05-05 06:52 51.80627 -114.64795 20179 ft 386 kts 205°
2026-05-05 06:53 51.78106 -114.66121 20047 ft 377 kts 205°
2026-05-05 06:53 51.75616 -114.67430 19753 ft 375 kts 205°
2026-05-05 06:53 51.73103 -114.68753 19029 ft 388 kts 204°
2026-05-05 06:53 51.70433 -114.69765 18384 ft 405 kts 186°
2026-05-05 06:54 51.67644 -114.69184 18033 ft 404 kts 161°
2026-05-05 06:54 51.65170 -114.67195 17762 ft 393 kts 142°
2026-05-05 06:54 51.62965 -114.64666 17441 ft 388 kts 140°
2026-05-05 06:54 51.60777 -114.62141 17078 ft 386 kts 141°
2026-05-05 06:55 51.58584 -114.59671 16723 ft 383 kts 142°
2026-05-05 06:55 51.56413 -114.57218 16380 ft 379 kts 142°
2026-05-05 06:55 51.54296 -114.54728 16069 ft 375 kts 141°
2026-05-05 06:55 51.52206 -114.52246 15753 ft 372 kts 142°
2026-05-05 06:56 51.50128 -114.49796 15439 ft 369 kts 142°
2026-05-05 06:56 51.48064 -114.47374 15136 ft 366 kts 142°
2026-05-05 06:56 51.46113 -114.44790 14826 ft 362 kts 135°
2026-05-05 06:56 51.44321 -114.41982 14547 ft 358 kts 133°
2026-05-05 06:57 51.42582 -114.39142 14261 ft 356 kts 133°
2026-05-05 06:57 51.40875 -114.36365 13977 ft 353 kts 133°
2026-05-05 06:57 51.39151 -114.33603 13695 ft 349 kts 134°
2026-05-05 06:57 51.37427 -114.30877 13372 ft 347 kts 134°
2026-05-05 06:58 51.35710 -114.28186 13052 ft 345 kts 134°
2026-05-05 06:58 51.33996 -114.25509 12735 ft 342 kts 134°
2026-05-05 06:58 51.32295 -114.22861 12393 ft 340 kts 134°
2026-05-05 06:58 51.30606 -114.20237 12099 ft 338 kts 134°
2026-05-05 06:59 51.28855 -114.17765 11812 ft 336 kts 147°
2026-05-05 06:59 51.26720 -114.16437 11668 ft 326 kts 172°
2026-05-05 06:59 51.24500 -114.16234 11604 ft 314 kts 183°
2026-05-05 06:59 51.22338 -114.16253 11437 ft 308 kts 184°
2026-05-05 07:00 51.20201 -114.16293 11175 ft 307 kts 183°
2026-05-05 07:00 51.18061 -114.16324 10864 ft 308 kts 183°
2026-05-05 07:00 51.15922 -114.16343 10626 ft 306 kts 182°
2026-05-05 07:00 51.13796 -114.16352 10385 ft 305 kts 182°
2026-05-05 07:01 51.11696 -114.16355 10262 ft 298 kts 182°
2026-05-05 07:01 51.09647 -114.16353 10204 ft 289 kts 182°
2026-05-05 07:01 51.07664 -114.16351 10143 ft 281 kts 182°
2026-05-05 07:01 51.05734 -114.16348 10081 ft 273 kts 182°
2026-05-05 07:02 51.03869 -114.16342 10050 ft 261 kts 182°
2026-05-05 07:02 51.02095 -114.16338 9954 ft 249 kts 182°
2026-05-05 07:02 51.00399 -114.16335 9841 ft 239 kts 182°
2026-05-05 07:02 50.98754 -114.16334 9607 ft 235 kts 182°
2026-05-05 07:03 50.97145 -114.16332 9337 ft 234 kts 182°
2026-05-05 07:03 50.95509 -114.16329 9073 ft 231 kts 182°
2026-05-05 07:03 50.93902 -114.16326 8798 ft 229 kts 182°
2026-05-05 07:03 50.92316 -114.16323 8542 ft 228 kts 182°
2026-05-05 07:04 50.90730 -114.16317 8285 ft 227 kts 182°
2026-05-05 07:04 50.89181 -114.16313 8021 ft 225 kts 181°
2026-05-05 07:04 50.87602 -114.16302 7778 ft 224 kts 181°
2026-05-05 07:04 50.86056 -114.16022 7392 ft 228 kts 156°
2026-05-05 07:05 50.84972 -114.14419 7206 ft 212 kts 108°
2026-05-05 07:05 50.84818 -114.12234 7093 ft 195 kts 76°
2026-05-05 07:05 50.85215 -114.10227 7032 ft 187 kts 55°
2026-05-05 07:05 50.86007 -114.08658 7009 ft 182 kts 39°
2026-05-05 07:06 50.86953 -114.07309 6932 ft 183 kts 37°
2026-05-05 07:06 50.87911 -114.05972 6876 ft 184 kts 37°
2026-05-05 07:06 50.88867 -114.04628 6801 ft 183 kts 37°
2026-05-05 07:06 50.89818 -114.03287 6739 ft 184 kts 37°
2026-05-05 07:07 50.90777 -114.01931 6619 ft 185 kts 38°
2026-05-05 07:07 50.91723 -114.00593 6574 ft 180 kts 38°
2026-05-05 07:07 50.92753 -113.99567 6548 ft 173 kts
2026-05-05 07:07 50.93956 -113.99390 6573 ft 177 kts
2026-05-05 07:08 50.95169 -113.99185 6583 ft 171 kts
2026-05-05 07:08 50.96314 -113.99095 6536 ft 158 kts
2026-05-05 07:08 50.97392 -113.99068 6405 ft 153 kts 360°
2026-05-05 07:08 50.98457 -113.99058 6191 ft 156 kts 360°
2026-05-05 07:09 50.99176 -113.99055 6053 ft 156 kts 359°
2026-05-05 07:09 51.00268 -113.99053 5819 ft 157 kts 360°
2026-05-05 07:09 51.01362 -113.99051 5609 ft 158 kts
2026-05-05 07:09 51.02807 -113.99047 5322 ft 157 kts
2026-05-05 07:10 51.03904 -113.99047 5111 ft 159 kts
2026-05-05 07:10 51.05013 -113.99046 4897 ft 160 kts
2026-05-05 07:10 51.05763 -113.99044 4732 ft 159 kts
2026-05-05 07:10 51.06856 -113.99044 4516 ft 153 kts
2026-05-05 07:11 51.07876 -113.99053 4278 ft 141 kts
2026-05-05 07:11 51.08807 -113.99066 4064 ft 134 kts
2026-05-05 07:11 51.09729 -113.99066 3829 ft 130 kts
2026-05-05 07:11 51.10631 -113.99069 3640 ft 129 kts
2026-05-05 07:12 51.11533 -113.99011 3561 ft 128 kts 359°
2026-05-05 07:12 51.12337 -113.99010 3550 ft 100 kts 359°
2026-05-05 07:12 51.12892 -113.99015 3554 ft 38 kts
2026-05-05 07:12 51.12985 -113.99017 3556 ft 0 kts 339°
2026-05-05 07:13 51.12993 -113.99044 3556 ft 7 kts 291°
2026-05-05 07:13 51.13029 -113.99120 3553 ft 9 kts 323°
2026-05-05 07:13 51.13080 -113.99176 3557 ft 9 kts 327°
2026-05-05 07:13 51.13096 -113.99202 3555 ft 0 kts 303°
2026-05-05 07:14 51.13098 -113.99208 3556 ft 3 kts 298°
2026-05-05 07:15 51.13089 -113.99276 3557 ft 8 kts 222°
2026-05-05 07:15 51.13034 -113.99299 3554 ft 8 kts 186°
2026-05-05 07:15 51.12979 -113.99302 3556 ft 8 kts 182°
2026-05-05 07:15 51.12912 -113.99304 3556 ft 11 kts 180°
2026-05-05 07:16 51.12823 -113.99303 3555 ft 14 kts 179°
2026-05-05 07:16 51.12749 -113.99305 3554 ft 6 kts 190°
2026-05-05 07:16 51.12715 -113.99340 3554 ft 6 kts 228°
2026-05-05 07:16 51.12704 -113.99405 3554 ft 6 kts 265°
2026-05-05 07:17 51.12704 -113.99475 3554 ft 6 kts 268°
2026-05-05 07:17 51.12702 -113.99545 3554 ft 6 kts 268°
2026-05-05 07:17 51.12702 -113.99621 3555 ft 8 kts 272°
2026-05-05 07:17 51.12704 -113.99740 3555 ft 14 kts 270°
2026-05-05 07:18 51.12704 -113.99916 3555 ft 17 kts 270°
2026-05-05 07:18 51.12703 -114.00096 3555 ft 16 kts 270°
2026-05-05 07:18 51.12703 -114.00268 3554 ft 15 kts 270°
2026-05-05 07:18 51.12704 -114.00434 3553 ft 15 kts 270°
2026-05-05 07:19 51.12703 -114.00592 3552 ft 14 kts 269°
2026-05-05 07:19 51.12703 -114.00705 3551 ft 7 kts 270°
2026-05-05 07:19 51.12722 -114.00782 3550 ft 8 kts 314°
2026-05-05 07:19 51.12734 -114.00803 3550 ft 4 kts 312°
2026-05-05 07:20 51.12755 -114.00863 3549 ft 7 kts 319°
2026-05-05 07:20 51.12803 -114.00875 3549 ft 7 kts 357°
2026-05-05 07:20 51.12805 -114.00875 3546 ft 0 kts 357°